Hourly Data Report for July 01, 2021

LONDON CS
ONTARIO
Current Station Operator: ECCC - MSC

43°02'00.000" N
81°09'00.000" W
278.00 m
6144478
71622
WSN

Download Data

Hourly Data (July 2021)
Hourly Data Report for July 1, 2021
TIME
LST
Temp Definition
°C
Dew Point Definition
°C
Rel Hum Definition
%
Precip. Amount Definition
mm

Wind Dir Definition
10's deg

Wind Spd Definition
km/h
Visibility Definition
km
Stn Press Definition
kPa
Hmdx Definition


Wind Chill Definition


Weather Definition


00:00 19.0 17.1 89 0.0       98.22     LegendNANA
01:00 18.7 17.4 92 0.0       98.15     LegendNANA
02:00 17.5 16.0 91 5.9       98.20     LegendNANA
03:00 17.2 16.5 95 1.9       98.11     LegendNANA
04:00 17.7 16.2 91 1.0       98.06     LegendNANA
05:00 17.2 16.6 96 0.0       98.06     LegendNANA
06:00 17.8 17.2 97 0.0       98.10     LegendNANA
07:00 18.5 16.3 87 0.0       98.09     LegendNANA
08:00 19.5 16.7 84 0.0       98.11     LegendNANA
09:00 19.6 16.3 82 0.0       98.11     LegendNANA
10:00 20.1 16.5 80 0.0       98.12 25   LegendNANA
11:00 21.9 16.6 72 0.0       98.12 27   LegendNANA
12:00 23.2 16.1 65 0.0       98.11 28   LegendNANA
13:00 23.7 16.3 63 0.0       98.06 29   LegendNANA
14:00 23.6 17.7 70 0.0       98.04 29   LegendNANA
15:00 23.1 16.8 68 0.0       98.01 28   LegendNANA
16:00 23.4 16.3 64 0.0       97.95 28   LegendNANA
17:00 23.1 14.5 59 0.0       97.97 27   LegendNANA
18:00 21.5 13.0 58 0.0       98.01     LegendNANA
19:00 20.0 13.4 66 0.0       98.06     LegendNANA
20:00 17.7 12.6 72 0.0       98.08     LegendNANA
21:00 16.3 12.5 78 0.0       98.08     LegendNANA
22:00 15.4 12.5 83 0.0       98.10     LegendNANA
23:00 14.6 12.1 85 0.0       98.10     LegendNANA

Notes on Data Quality.

Legend

  • E = Estimated
  • M = Missing
  • NA = Not Available*
  • [empty] = Indicates an unobserved value
Date modified: